Location: *
(33.6842°N, 117.7925°W)
Time: 22:43:03
(UTC+00:00)

Nadezhda 3 Rocket - Pass Details

Date: 21 October 2019
Orbit: 957 x 999 km, 82.9° (Epoch: 22 November)

Event Time Altitude Azimuth Distance (km) Brightness Sun altitude
Rises 12:28:43 0° 353° (N) 3,724 7.0 -19.8°
Reaches altitude 10° 12:31:16 10° 353° (N) 2,768 6.3 -19.3°
Maximum altitude 12:37:38 86° 266° (W) 998 4.0 -18.0°
Drops below altitude 10° 12:43:55 10° 177° (S) 2,730 6.4 -16.7°
Sets 12:46:24 0° 177° (S) 3,668 7.1 -16.1°
